OPS 4682 DEB, 38431

Orbit data source: Space-Track

OPS 4682 DEB, 38431 is space debris in LEO originally from a launch on Sat, 03 Apr 1965 UTC launched from the Air Force Western Test Range (AFWTR). Debris objects in space refer to the collection of defunct objects orbiting the Earth. Examples of debris include non-operational satellites, rocket bodies, and fragments generated from explosions, collisions, or faulty payload assembly.

Loading next visibility...
Identifier
38431, 1965-027EL
Orbit
LEO
Country
Flag of USUS
Related business
Manufacturer
Unknown
Mission
Spacecraft
Bus & Motor
Unknown
Mass
Unknown
Launch date (UTC)
1965-04-03 (61 years ago)
Launch vehicle
Unknown
Launch site
Air Force Western Test Range (AFWTR)
Object type
Payload
Rocket body
Debris
Shape & HBR
Unknown shape, 0.1 m
Radar Cross Section
Small (<0.1 m²)

Expand to show TLE details & history
Last TLE update: 1 day ago

TLE from 1 day ago
0 OPS 4682 DEB
1 38431U 65027EL  25307.09577128 -.00000024  00000-0 -10553-3 0  9990
2 38431  90.2345 352.6413 0026381 110.0553 250.3413 13.00562033635187
Epoch: 2025-11-03T02:17Z
TLE epoch observation values (Epoch: 2025-11-03T02:17:54.638Z)
Latitude
0.00001°
Longitude
-84.43842°
Altitude
1,269.597 km
Speed
7.218 km/s
True Right ascension
23h 30m 33s
True Declination
0° 00' 00"
Sunlit
Object was in full shadow at epoch
Visualization orbit readout
Latitude
Unknown
Longitude
Unknown
Altitude
Unknown
Speed
Unknown
Apparent Right ascension
Unknown
Apparent Declination
Unknown
Sunlit
N/A
Visualization observer readout
Local Sidereal Time
06:37:28
Azimuth
Unknown
Elevation
Unknown
Doppler factor
Unknown
Orbital elements
Apogee altitude
1,277.154 km
Perigee altitude
1,236.869 km
Semi-major axis
7,635.148 km
Eccentricity
0.00264
Inclination
90.2345°
RAAN
352.6413°
Arg. of periapsis
110.0553°
True anomaly
250.05693°
Mean anomaly
250.3413°
Eccentric anomaly
250.19908°
Mean motion
3.25325 °/min
Orbital period
110.66 mins
BSTAR
-0.00010553
Loading maneuver chart data...
Computing Atmospheric mass density...
Loading historical data...
Loading historical data...
Loading historical data...
Loading historical data...
Loading historical data...
Loading historical data...
Loading historical data...

Documentation

Showing up to 5 results
|